Terminal Aerodrome Forecast
Issued by NWS Shreveport, LA

Home | Current Version | Previous Version | Text Only | Print | Product List | Glossary On
Versions: 1 2 3 4 5 6 7 8 9 10 11 12 13 14 15 16 17 18 19 20 21
000
FTUS44 KSHV 260535
TAFMLU
TAF
KMLU 260535Z 2606/2706 22008KT P6SM SKC
     FM261200 22003KT P6SM SCT025
      TEMPO 2612/2615 5SM BR
     FM261500 VRB05KT P6SM SCT030
     FM270000 04010KT P6SM FEW050 SCT150=

USA.gov is the U.S. government's official web portal to all federal, state and local government web resources and services.